Hourly Weather Celakovice

Today, 16 June, Wednesday

Time Temperature Precipitation Wind Pressure Humidity
00:00 +19°C° 0 mm 1 mps 745 mmHg 82%
01:00 +18°C° 0 mm 1 mps 745 mmHg 86%
02:00 +18°C° 0 mm 1 mps 745 mmHg 86%
03:00 +18°C° 0 mm 1 mps 745 mmHg 86%
04:00 +18°C° 0 mm 1 mps 745 mmHg 86%
05:00 +19°C° 0 mm 1 mps 745 mmHg 83%
06:00 +20°C° 0 mm 1 mps 745 mmHg 80%
07:00 +21°C° 0 mm 1 mps 745 mmHg 78%
08:00 +22°C° 0 mm 1 mps 745 mmHg 73%
09:00 +24°C° 0 mm 1 mps 745 mmHg 69%
10:00 +25°C° 0 mm 1 mps 745 mmHg 64%
11:00 +26°C° 0 mm 2 mps 745 mmHg 61%
12:00 +27°C° 0 mm 2 mps 745 mmHg 57%
13:00 +28°C° 0 mm 2 mps 745 mmHg 54%
14:00 +28°C° 0 mm 2 mps 745 mmHg 53%
15:00 +28°C° 0 mm 2 mps 744 mmHg 53%
16:00 +28°C° 0 mm 2 mps 744 mmHg 53%
17:00 +27°C° 0 mm 2 mps 744 mmHg 59%
18:00 +26°C° 0 mm 2 mps 744 mmHg 64%
19:00 +26°C° 0 mm 2 mps 744 mmHg 69%
20:00 +24°C° 0 mm 2 mps 744 mmHg 74%
21:00 +21°C° 0 mm 2 mps 744 mmHg 79%
22:00 +19°C° 0 mm 2 mps 744 mmHg 83%
23:00 +19°C° 0 mm 2 mps 744 mmHg 84%

Tomorrow, 17 June, Thursday

Time Temperature Precipitation Wind Pressure Humidity
00:00 +18°C° 0 mm 2 mps 744 mmHg 84%
01:00 +18°C° 0 mm 2 mps 744 mmHg 85%
02:00 +17°C° 0 mm 2 mps 744 mmHg 86%
03:00 +17°C° 0 mm 2 mps 744 mmHg 87%
04:00 +16°C° 0 mm 1 mps 744 mmHg 88%
05:00 +18°C° 0 mm 2 mps 745 mmHg 82%
06:00 +20°C° 0 mm 2 mps 745 mmHg 76%
07:00 +21°C° 0 mm 2 mps 745 mmHg 70%
08:00 +24°C° 0 mm 3 mps 745 mmHg 64%
09:00 +26°C° 0 mm 4 mps 745 mmHg 58%
10:00 +28°C° 0 mm 4 mps 745 mmHg 52%
11:00 +29°C° 0 mm 4 mps 745 mmHg 49%
12:00 +30°C° 0 mm 5 mps 745 mmHg 45%
13:00 +30°C° 0 mm 5 mps 745 mmHg 41%
14:00 +30°C° 0 mm 5 mps 744 mmHg 43%
15:00 +30°C° 0 mm 4 mps 744 mmHg 45%
16:00 +30°C° 0 mm 4 mps 744 mmHg 47%
17:00 +29°C° 0 mm 4 mps 744 mmHg 54%
18:00 +27°C° 0 mm 3 mps 744 mmHg 61%
19:00 +26°C° 0 mm 3 mps 744 mmHg 67%
20:00 +24°C° 0 mm 3 mps 744 mmHg 71%
21:00 +23°C° 0 mm 2 mps 744 mmHg 74%
22:00 +20°C° 0 mm 2 mps 744 mmHg 77%
23:00 +20°C° 0 mm 2 mps 744 mmHg 79%

Day after tomorrow, 18 June, Friday

Time Temperature Precipitation Wind Pressure Humidity
00:00 +19°C° 0 mm 2 mps 744 mmHg 81%
01:00 +18°C° 0 mm 2 mps 744 mmHg 83%
02:00 +18°C° 0 mm 2 mps 744 mmHg 84%
03:00 +17°C° 0 mm 2 mps 744 mmHg 85%
04:00 +17°C° 0 mm 2 mps 744 mmHg 86%
05:00 +19°C° 0 mm 3 mps 744 mmHg 80%
06:00 +21°C° 0 mm 3 mps 744 mmHg 74%
07:00 +22°C° 0 mm 4 mps 745 mmHg 68%
08:00 +25°C° 0 mm 4 mps 744 mmHg 62%
09:00 +27°C° 0 mm 5 mps 744 mmHg 55%
10:00 +29°C° 0 mm 5 mps 744 mmHg 48%
11:00 +29°C° 0 mm 5 mps 744 mmHg 46%
12:00 +30°C° 0 mm 5 mps 744 mmHg 43%
13:00 +32°C° 0 mm 5 mps 744 mmHg 41%
14:00 +32°C° 0 mm 5 mps 744 mmHg 42%
15:00 +32°C° 0 mm 5 mps 744 mmHg 44%
16:00 +32°C° 0 mm 4 mps 744 mmHg 45%
17:00 +29°C° 0 mm 4 mps 743 mmHg 52%
18:00 +28°C° 0 mm 4 mps 743 mmHg 59%
19:00 +26°C° 0 mm 3 mps 743 mmHg 66%
20:00 +25°C° 0 mm 3 mps 743 mmHg 71%
21:00 +22°C° 0 mm 3 mps 743 mmHg 76%
22:00 +21°C° 0 mm 2 mps 744 mmHg 81%
23:00 +20°C° 0 mm 2 mps 744 mmHg 82%

19 June, Saturday

Time Temperature Precipitation Wind Pressure Humidity
00:00 +20°C° 0 mm 2 mps 744 mmHg 84%
01:00 +19°C° 0 mm 2 mps 744 mmHg 85%
02:00 +19°C° 0 mm 2 mps 744 mmHg 86%
03:00 +18°C° 0 mm 2 mps 744 mmHg 86%
04:00 +19°C° 0 mm 1 mps 744 mmHg 87%
05:00 +20°C° 0 mm 2 mps 744 mmHg 81%
06:00 +21°C° 0 mm 2 mps 744 mmHg 76%
07:00 +24°C° 0 mm 2 mps 744 mmHg 70%
08:00 +25°C° 0 mm 2 mps 744 mmHg 66%
09:00 +27°C° 0 mm 2 mps 744 mmHg 61%
10:00 +29°C° 0 mm 1 mps 744 mmHg 56%
11:00 +30°C° 0 mm 1 mps 744 mmHg 53%
12:00 +31°C° 0 mm 1 mps 744 mmHg 50%
13:00 +32°C° 0 mm 1 mps 744 mmHg 47%
14:00 +32°C° 0 mm 1 mps 744 mmHg 46%
15:00 +32°C° 0 mm 1 mps 743 mmHg 44%
16:00 +33°C° 0 mm 1 mps 743 mmHg 43%
17:00 +31°C° 0 mm 1 mps 743 mmHg 49%
18:00 +30°C° 0 mm 1 mps 743 mmHg 56%
19:00 +29°C° 0 mm 1 mps 743 mmHg 62%
20:00 +27°C° 0 mm 1 mps 743 mmHg 65%
21:00 +26°C° 0 mm 1 mps 744 mmHg 68%
22:00 +24°C° 0 mm 1 mps 744 mmHg 72%
23:00 +24°C° 0 mm 1 mps 744 mmHg 75%

20 June, Sunday

Time Temperature Precipitation Wind Pressure Humidity
00:00 +23°C° 0 mm 1 mps 743 mmHg 77%
01:00 +23°C° 0 mm 1 mps 743 mmHg 80%
02:00 +22°C° 0 mm 1 mps 743 mmHg 83%
03:00 +22°C° 0 mm 1 mps 743 mmHg 85%
04:00 +21°C° 0 mm 1 mps 743 mmHg 87%
05:00 +23°C° 0 mm 2 mps 743 mmHg 82%
06:00 +24°C° 0 mm 2 mps 743 mmHg 77%
07:00 +26°C° 0 mm 2 mps 743 mmHg 71%
08:00 +27°C° 0 mm 3 mps 742 mmHg 66%
09:00 +29°C° 0 mm 4 mps 742 mmHg 60%
10:00 +30°C° 0 mm 5 mps 742 mmHg 55%
11:00 +32°C° 0 mm 5 mps 742 mmHg 51%
12:00 +33°C° 0 mm 5 mps 741 mmHg 47%
13:00 +34°C° 0 mm 6 mps 741 mmHg 44%
14:00 +34°C° 0 mm 6 mps 741 mmHg 45%
15:00 +34°C° 0 mm 5 mps 741 mmHg 46%
16:00 +34°C° 0 mm 5 mps 740 mmHg 47%
17:00 +32°C° 0 mm 5 mps 740 mmHg 52%
18:00 +30°C° 0 mm 5 mps 740 mmHg 57%
19:00 +28°C° 0 mm 4 mps 740 mmHg 63%
20:00 +27°C° 0 mm 4 mps 740 mmHg 65%
21:00 +25°C° 0 mm 4 mps 740 mmHg 67%
22:00 +23°C° 0 mm 4 mps 740 mmHg 69%
23:00 +22°C° 0 mm 4 mps 740 mmHg 72%

21 June, Monday

Time Temperature Precipitation Wind Pressure Humidity
00:00 +21°C° 0 mm 4 mps 740 mmHg 75%
01:00 +20°C° 0 mm 3 mps 740 mmHg 78%
02:00 +20°C° 0 mm 3 mps 740 mmHg 79%
03:00 +19°C° 0 mm 3 mps 739 mmHg 80%
04:00 +19°C° 0 mm 3 mps 739 mmHg 81%
05:00 +21°C° 0 mm 4 mps 739 mmHg 77%
06:00 +22°C° 0 mm 5 mps 739 mmHg 73%
07:00 +25°C° 0 mm 5 mps 739 mmHg 68%
08:00 +26°C° 0 mm 6 mps 739 mmHg 63%
09:00 +28°C° 0 mm 6 mps 739 mmHg 59%
10:00 +29°C° 0 mm 6 mps 739 mmHg 54%
11:00 +30°C° 0 mm 6 mps 738 mmHg 52%
12:00 +32°C° 0 mm 7 mps 738 mmHg 50%
13:00 +33°C° 0 mm 7 mps 738 mmHg 48%
14:00 +33°C° 0 mm 6 mps 737 mmHg 48%
15:00 +33°C° 0 mm 6 mps 737 mmHg 48%
16:00 +33°C° 0 mm 6 mps 737 mmHg 47%
17:00 +32°C° 0 mm 6 mps 736 mmHg 51%
18:00 +29°C° 0 mm 6 mps 736 mmHg 55%
19:00 +28°C° 0 mm 6 mps 735 mmHg 58%
20:00 +28°C° 0 mm 7 mps 735 mmHg 58%
21:00 +27°C° 0 mm 7 mps 734 mmHg 58%
22:00 +27°C° 0 mm 7 mps 734 mmHg 57%
23:00 +24°C° 1.7 mm 6 mps 735 mmHg 68%
Show more

We Need Your Consent

Meteoprog and our Service Providers may store and access personal data such as cookies, device identifiers or other similar technologies on your device and process such data to personalise content and ads, as well as provide social media features and to analyse the traffic.

  • Store and/or access information on your device

    Cookies, device identifiers or other information can be stored or accessed on your device for the purposes indicated above.

  • Personalised ads and content, ad and content measurement, audience insights, and products development

    Ads and content can be personalised based on a profile. More data can be added to better personalise ads and content. Ad and content performance can be measured. Insights about the audience who saw the ads and content can be derived. Such data can be used to develop or improve user’s experience, systems and software.

By clicking ‘I Agree’ you will allow the use of indicated cookies, device identifiers, web beacons or other similar technologies. Your settings can be changed in the browser on your device.

For certain purposes, legitimate interests may be relied on, rather than consent. You can read more about this in our Privacy and Cookie Policy.